Location: Dodgeville
(42.9600°N, 90.1300°W)
Time: 21:41:32
(UTC-05:00)

Amateur Radio Satellites - All Passes

Search period start: 25 June 2016 21:11
Search period end: 26 June 2016 21:11
Location: Dodgeville, 42.9600°N, 90.1300°W

Satellite Date Start Highest point End Downlink Frequencies (MHz)
Time Altitude Azimuth
AAUSAT CUBESAT 2 25 Jun 21:15:16 21:19:19 49° 261° (W) 21:23:25 437.432
CINEMA 3 25 Jun 21:20:19 21:23:02 17° 268° (W) 21:25:44 145.822/145.860
AUBIESAT-1 25 Jun 21:24:20 21:27:23 34° 256° (WSW) 21:30:27 437.475
RS-15 25 Jun 21:30:29 21:42:55 81° 55° (NE) 21:55:14 29.354- 29.394
CANX-2 25 Jun 21:34:16 21:36:07 12° 271° (W) 21:37:58 2200.000
HO-68 25 Jun 21:35:05 21:40:48 26° 267° (W) 21:46:36 435.675
CUBEBUG 2 25 Jun 21:38:00 21:41:46 33° 264° (W) 21:45:37 437.445
COMPASS 1 25 Jun 21:47:27 21:50:25 19° 268° (W) 21:53:24 437.405
DELFI C3 25 Jun 21:54:03 21:58:05 81° 76° (ENE) 22:02:09 145.870
PRISM 25 Jun 22:05:54 22:09:51 49° 288° (WNW) 22:13:46 437.425
ZACube-1 25 Jun 22:18:49 22:22:23 27° 265° (W) 22:26:02 437.345
HUMSAT D 25 Jun 22:23:19 22:27:28 79° 75° (ENE) 22:31:41 437.325/437.525
AO-85 25 Jun 22:29:04 22:34:23 57° 119° (ESE) 22:39:33 145.980
UWE-3 25 Jun 22:34:27 22:36:25 13° 271° (W) 22:38:24 435.000/436.395/437.385
Oscar 11 25 Jun 22:35:52 22:38:48 18° 268° (W) 22:41:47 145.826/435.025
ANTELSAT 25 Jun 22:35:58 22:39:45 25° 94° (E) 22:43:34 437.575/2403.000
VELOX 1 25 Jun 22:37:28 22:39:55 15° 62° (ENE) 22:42:21 145.980
CUBEBUG 1 25 Jun 22:37:47 22:40:20 15° 63° (ENE) 22:42:54 437.445
FUNcube-1 25 Jun 22:39:02 22:41:56 18° 268° (W) 22:44:52 145.935
YUBILEINY 25 Jun 22:53:02 22:59:16 21° 61° (ENE) 23:05:29 435.215
ESTCUBE 1 25 Jun 22:58:34 23:02:44 36° 70° (ENE) 23:06:54 437.505/2401.250
AISAT 25 Jun 23:16:00 23:20:03 36° 70° (ENE) 23:24:05 437.250
50 SAT 25 Jun 23:24:32 23:28:02 42° 72° (ENE) 23:31:36 437.505
TIGRISAT 25 Jun 23:27:57 23:32:36 80° 102° (ESE) 23:37:17 435.000
UNISAT 6 25 Jun 23:32:00 23:36:39 88° 282° (WNW) 23:41:21 437.425
UKube-1 25 Jun 23:33:36 23:37:30 34° 69° (ENE) 23:41:24 .
SPROUT 25 Jun 23:41:36 23:45:12 27° 68° (ENE) 23:48:48 437.525
RS-15 25 Jun 23:44:09 23:54:11 31° 257° (WSW) 00:04:10 29.354- 29.394
DX 1 25 Jun 23:47:04 23:51:20 59° 74° (ENE) 23:55:38 434.975-435.025
SO-50 25 Jun 23:50:44 23:53:07 14° 33° (NNE) 23:55:28 436.795
Cosmos 2491 26 Jun 00:03:37 00:10:17 25° 80° (E) 00:16:57 435.465 / 435.565
Cosmos 2504 26 Jun 00:05:18 00:11:15 19° 59° (ENE) 00:17:04 435.465 / 435.565
AO-85 26 Jun 00:10:39 00:15:12 27° 317° (NW) 00:19:36 145.980
VELOX 1 26 Jun 00:11:31 00:15:54 60° 259° (W) 00:20:16 145.980
CUBEBUG 1 26 Jun 00:11:54 00:16:12 55° 260° (W) 00:20:29 437.445
ANTELSAT 26 Jun 00:12:18 00:16:31 36° 290° (WNW) 00:20:46 437.575/2403.000
JAS-2 26 Jun 00:16:23 00:18:05 11° 85° (E) 00:19:44 435.910
BUGSAT 1 26 Jun 00:21:58 00:25:07 21° 94° (E) 00:28:17 437.445
NANOSAT C BR1 26 Jun 00:25:31 00:29:41 56° 100° (E) 00:33:51 145.865
QB50P1 26 Jun 00:26:38 00:30:51 61° 101° (E) 00:35:04 145.935-145.965
POPSAT HIP 1 26 Jun 00:29:31 00:33:46 65° 101° (ESE) 00:38:00 437.405
ESTCUBE 1 26 Jun 00:36:02 00:39:37 23° 266° (W) 00:43:14 437.505/2401.250
QB50P2 26 Jun 00:41:02 00:45:18 87° 286° (WNW) 00:49:35 145.880/145.840
POLYITAN 1 26 Jun 00:43:38 00:47:55 85° 284° (WNW) 00:52:12 437.675
DUCHIFAT 1 26 Jun 00:47:36 00:51:51 87° 283° (WNW) 00:56:06 145.980
YUBILEINY 26 Jun 00:48:29 00:57:22 90° 146° (SE) 01:06:14 435.215
AISAT 26 Jun 00:53:14 00:56:37 21° 266° (W) 01:00:01 437.250
50 SAT 26 Jun 01:00:06 01:01:57 13° 269° (W) 01:03:48 437.505
TIGRISAT 26 Jun 01:06:44 01:08:40 13° 299° (WNW) 01:10:37 435.000
UKube-1 26 Jun 01:10:13 01:13:36 22° 265° (W) 01:17:00 .
UNISAT 6 26 Jun 01:11:30 01:12:39 11° 301° (WNW) 01:13:48 437.425
TISAT 1 26 Jun 01:12:44 01:16:52 71° 76° (ENE) 01:21:03 437.305
SPROUT 26 Jun 01:17:29 01:21:05 27° 265° (W) 01:24:43 437.525
DX 1 26 Jun 01:25:52 01:27:54 13° 269° (W) 01:29:56 434.975-435.025
SO-50 26 Jun 01:29:50 01:34:31 68° 54° (NE) 01:39:02 436.795
SWISSCUBE 26 Jun 01:47:40 01:52:04 38° 69° (ENE) 01:56:30 437.505
BUGSAT 1 26 Jun 01:56:55 02:00:33 32° 290° (WNW) 02:04:12 437.445
Cosmos 2504 26 Jun 01:57:10 02:06:09 82° 82° (E) 02:14:48 435.465 / 435.565
Cosmos 2491 26 Jun 01:57:30 02:06:15 72° 280° (W) 02:15:02 435.465 / 435.565
JAS-2 26 Jun 01:58:22 02:04:13 88° 286° (WNW) 02:09:32 435.910
PCSat 26 Jun 02:02:09 02:05:45 18° 105° (ESE) 02:09:22 145.827
NANOSAT C BR1 26 Jun 02:02:41 02:04:58 14° 297° (WNW) 02:07:16 145.865
QB50P1 26 Jun 02:04:03 02:06:08 13° 298° (WNW) 02:08:13 145.935-145.965
POPSAT HIP 1 26 Jun 02:07:07 02:09:01 13° 298° (WNW) 02:10:55 437.405
ITUPSAT 1 26 Jun 02:11:58 02:16:39 58° 72° (ENE) 02:21:24 437.325
BEESAT 26 Jun 02:12:59 02:17:40 60° 72° (ENE) 02:22:25 436.000
Gurwin Techsat 1B 26 Jun 02:14:29 02:18:43 24° 93° (E) 02:22:56 435.225
Oscar 19 26 Jun 02:21:20 02:26:25 61° 101° (ESE) 02:31:29 437.125/150
ITAMSAT 1 26 Jun 02:39:02 02:41:38 14° 89° (E) 02:44:15 435.822/435.867
YUBILEINY 26 Jun 02:47:17 02:52:53 19° 283° (WNW) 02:58:29 435.215
AO-7 26 Jun 02:56:45 02:59:23 12° 85° (E) 03:02:00 29.400- 29.500
STARS 26 Jun 02:57:53 02:59:08 11° 60° (ENE) 03:00:22 437.465
SO-50 26 Jun 03:11:55 03:14:23 14° 252° (WSW) 03:16:50 436.795
MOZHAYETS 4 26 Jun 03:19:20 03:23:23 31° 68° (ENE) 03:27:28
SWISSCUBE 26 Jun 03:26:04 03:29:57 24° 266° (W) 03:33:52 437.505
BEESAT 3 26 Jun 03:33:43 03:37:32 55° 119° (ESE) 03:41:24 437.485
O/OREOS (USA 219) 26 Jun 03:38:21 03:42:48 68° 110° (ESE) 03:47:16 437.305
AIST 1 26 Jun 03:41:41 03:43:53 14° 68° (ENE) 03:46:04
PCSat 26 Jun 03:43:12 03:48:35 66° 303° (WNW) 03:54:01 145.827
JAS-2 26 Jun 03:45:35 03:48:16 14° 306° (NW) 03:50:52 435.910
KKS-1 26 Jun 03:50:13 03:54:37 74° 75° (ENE) 03:59:03 437.445
ITUPSAT 1 26 Jun 03:51:56 03:54:52 16° 269° (W) 03:57:49 437.325
Cosmos 2504 26 Jun 03:52:06 03:58:26 23° 282° (WNW) 04:04:40 435.465 / 435.565
BEESAT 26 Jun 03:53:05 03:55:50 15° 269° (W) 03:58:38 436.000
Gurwin Techsat 1B 26 Jun 03:53:48 03:58:53 46° 290° (WNW) 04:03:56 435.225
Cosmos 2491 26 Jun 04:00:08 04:04:53 15° 303° (WNW) 04:09:40 435.465 / 435.565
Oscar 19 26 Jun 04:01:49 04:05:16 19° 299° (WNW) 04:08:43 437.125/150
BEESAT 2 26 Jun 04:05:33 04:09:29 67° 121° (ESE) 04:13:27 435.950
ITAMSAT 1 26 Jun 04:16:26 04:21:41 76° 287° (WNW) 04:26:53 435.822/435.867
STARS 26 Jun 04:30:29 04:34:50 81° 258° (WSW) 04:39:13 437.465
CUBESAT XI-V 26 Jun 04:39:08 04:43:01 26° 67° (ENE) 04:46:54 437.345
AO-7 26 Jun 04:45:21 04:53:42 66° 105° (ESE) 05:01:59 29.400- 29.500
GONETS M04 26 Jun 04:49:40 04:56:41 26° 65° (ENE) 05:03:39
Cosmos 2499 26 Jun 04:50:34 04:56:14 18° 58° (ENE) 05:01:43 435.465 / 435.565
MOZHAYETS 4 26 Jun 04:56:34 05:00:32 28° 265° (W) 05:04:31
HORYU 2 26 Jun 05:06:27 05:09:58 22° 94° (E) 05:13:29 437.375
BEESAT 3 26 Jun 05:12:49 05:15:32 18° 318° (NW) 05:18:17 437.485
AIST 1 26 Jun 05:17:41 05:21:50 52° 266° (W) 05:25:58
O/OREOS (USA 219) 26 Jun 05:20:08 05:22:42 15° 309° (NW) 05:25:16 437.305
AO-85 26 Jun 05:21:57 05:23:41 12° 30° (NNE) 05:25:21 145.980
PCSat 26 Jun 05:30:13 05:33:04 14° 324° (NW) 05:35:56 145.827
KKS-1 26 Jun 05:30:45 05:31:42 11° 271° (W) 05:32:40 437.445
BEESAT 2 26 Jun 05:45:15 05:47:45 16° 320° (NW) 05:50:15 435.950
BRITE-PL 26 Jun 05:55:44 05:57:04 11° 89° (E) 05:58:23 437.365/2234.400
ITAMSAT 1 26 Jun 05:58:45 06:00:14 11° 304° (NW) 06:01:44 435.822/435.867
AIST 2 26 Jun 06:01:08 06:05:12 62° 121° (ESE) 06:09:18 435.215
Cubesat XI-IV 26 Jun 06:02:33 06:05:04 13° 89° (E) 06:07:36 437.490
LilacSat-2 26 Jun 06:13:53 06:15:33 12° 91° (E) 06:17:13 437.200
CUBESAT XI-V 26 Jun 06:15:57 06:20:15 35° 263° (W) 06:24:34 437.345
STRAND 1 26 Jun 06:27:47 06:32:05 28° 65° (ENE) 06:36:24 437.568
CUTE-I 26 Jun 06:36:14 06:40:50 28° 95° (E) 06:45:23 437.470
AO-7 26 Jun 06:38:49 06:45:55 32° 304° (NW) 06:52:59 29.400- 29.500
Cosmos 2499 26 Jun 06:42:04 06:50:59 79° 81° (E) 06:59:23 435.465 / 435.565
HORYU 2 26 Jun 06:42:29 06:46:37 37° 291° (WNW) 06:50:44 437.375
GOMX 1 26 Jun 06:42:37 06:45:25 17° 93° (E) 06:48:15 467.674
GONETS M04 26 Jun 06:45:40 06:54:20 73° 266° (W) 07:03:01
AO-85 26 Jun 07:00:43 07:05:16 57° 52° (NE) 07:09:24 145.980
NOAA 18 26 Jun 07:11:55 07:17:26 62° 102° (ESE) 07:22:55 137.9125
NOAA 15 26 Jun 07:13:23 07:18:41 82° 105° (ESE) 07:23:55 137.62
PRISM 26 Jun 07:23:03 07:24:57 13° 62° (ENE) 07:26:51 437.425
BRITE-PL 26 Jun 07:31:54 07:36:01 58° 286° (WNW) 07:40:05 437.365/2234.400
Cubesat XI-IV 26 Jun 07:40:21 07:45:46 81° 286° (WNW) 07:51:09 437.490
AIST 2 26 Jun 07:41:15 07:44:05 18° 319° (NW) 07:46:55 435.215
LilacSat-2 26 Jun 07:46:23 07:50:08 49° 287° (WNW) 07:53:53 437.200
DANDE 26 Jun 07:46:29 07:53:36 32° 87° (E) 08:00:25 436.750
CUSAT 1 26 Jun 07:49:20 07:57:04 58° 95° (E) 08:03:44 437.405
DOVE 4 26 Jun 07:55:56 08:00:06 49° 100° (E) 08:04:26 437.250
CUTE 1.7 + AOD 2 26 Jun 08:01:44 08:04:08 15° 90° (E) 08:06:31 437.475
STRAND 1 26 Jun 08:06:18 08:11:05 39° 262° (W) 08:15:55 437.568
SEEDS 26 Jun 08:11:09 08:13:09 13° 90° (E) 08:15:08 437.485
CUTE-I 26 Jun 08:15:58 08:20:58 40° 292° (WNW) 08:25:56 437.470
GOMX 1 26 Jun 08:19:48 08:23:42 40° 288° (WNW) 08:27:42 467.674
Cosmos 2499 26 Jun 08:36:40 08:43:02 23° 282° (WNW) 08:49:11 435.465 / 435.565
AO-85 26 Jun 08:42:35 08:45:07 15° 252° (WSW) 08:47:34 145.980
PHONESAT 2.4 26 Jun 08:44:48 08:47:29 27° 161° (SSE) 08:50:10 2401.200-2431.200
GONETS M04 26 Jun 08:45:42 08:49:30 14° 287° (WNW) 08:53:18
UWE-3 26 Jun 08:46:07 08:47:36 11° 89° (E) 08:49:06 435.000/436.395/437.385
NOAA 18 26 Jun 08:53:36 08:57:36 21° 300° (WNW) 09:01:37 137.9125
NOAA 15 26 Jun 08:54:56 08:57:46 15° 302° (WNW) 09:00:35 137.62
PRISM 26 Jun 08:55:38 08:59:45 62° 258° (WSW) 09:03:54 437.425
AAUSAT CUBESAT 2 26 Jun 08:57:04 09:00:26 23° 94° (E) 09:03:46 437.432
HO-68 26 Jun 08:59:42 09:06:50 61° 102° (ESE) 09:13:56 435.675
AUBIESAT-1 26 Jun 09:03:31 09:04:03 10° 97° (E) 09:04:36 437.475
CINEMA 3 26 Jun 09:11:25 09:15:55 86° 284° (WNW) 09:20:37 145.822/145.860
CANX-2 26 Jun 09:15:27 09:19:46 76° 284° (WNW) 09:24:01 2200.000
ISS 26 Jun 09:19:06 09:21:31 20° 134° (SE) 09:23:59 145.825
Cubesat XI-IV 26 Jun 09:22:51 09:24:58 12° 304° (NW) 09:27:06 437.490
CUBEBUG 2 26 Jun 09:26:55 09:31:18 44° 98° (E) 09:35:47 437.445
DANDE 26 Jun 09:27:43 09:36:03 63° 283° (WNW) 09:43:55 436.750
COMPASS 1 26 Jun 09:27:51 09:32:03 66° 101° (E) 09:36:12 437.405
CUSAT 1 26 Jun 09:32:38 09:39:21 31° 289° (WNW) 09:45:15 437.405
DOVE 4 26 Jun 09:34:50 09:37:28 16° 295° (WNW) 09:40:10 437.250
ANTELSAT 26 Jun 09:36:04 09:39:27 23° 66° (ENE) 09:42:53 437.575/2403.000
CUTE 1.7 + AOD 2 26 Jun 09:36:06 09:40:17 51° 287° (WNW) 09:44:25 437.475
M-CUBED/EXP-1 PRIME 26 Jun 09:37:50 09:41:16 31° 103° (ESE) 09:44:56 437.505
SEEDS 26 Jun 09:45:02 09:49:13 56° 286° (WNW) 09:53:21 437.485
ZACube-1 26 Jun 10:05:05 10:09:31 51° 99° (E) 10:13:58 437.345
HUMSAT D 26 Jun 10:07:40 10:09:31 12° 90° (E) 10:11:22 437.325/437.525
Cosmos 2491 26 Jun 10:12:59 10:16:26 13° 54° (NE) 10:19:52 435.465 / 435.565
UWE-3 26 Jun 10:19:58 10:24:31 75° 285° (WNW) 10:29:09 435.000/436.395/437.385
Oscar 11 26 Jun 10:20:21 10:24:45 79° 102° (ESE) 10:29:05 145.826/435.025
PHONESAT 2.4 26 Jun 10:20:49 10:23:50 53° 177° (S) 10:26:51 2401.200-2431.200
FUNcube-1 26 Jun 10:24:07 10:28:39 77° 102° (ESE) 10:33:13 145.935
TIGRISAT 26 Jun 10:27:25 10:31:41 75° 75° (ENE) 10:36:03 435.000
UNISAT 6 26 Jun 10:31:37 10:35:54 88° 76° (ENE) 10:40:19 437.425
JAS-2 26 Jun 10:31:55 10:32:47 10° 51° (NE) 10:33:39 435.910
AAUSAT CUBESAT 2 26 Jun 10:32:16 10:35:56 30° 291° (WNW) 10:39:34 437.432
AUBIESAT-1 26 Jun 10:35:00 10:38:48 68° 290° (WNW) 10:42:54 437.475
PCSat 26 Jun 10:47:31 10:51:43 22° 43° (NE) 10:55:54 145.827
HO-68 26 Jun 10:48:08 10:54:06 29° 301° (WNW) 11:00:03 435.675
ISS 26 Jun 10:54:31 10:57:44 54° 331° (NNW) 11:00:57 145.825
CUBEBUG 2 26 Jun 11:04:17 11:07:38 21° 294° (WNW) 11:11:03 437.445
COMPASS 1 26 Jun 11:05:19 11:07:03 12° 298° (WNW) 11:08:47 437.405
DELFI C3 26 Jun 11:05:37 11:09:37 68° 284° (WNW) 11:13:33 145.870
ANTELSAT 26 Jun 11:12:05 11:15:59 34° 263° (W) 11:19:58 437.575/2403.000
M-CUBED/EXP-1 PRIME 26 Jun 11:12:45 11:15:41 22° 297° (WNW) 11:18:48 437.505
BUGSAT 1 26 Jun 11:13:12 11:15:51 17° 65° (ENE) 11:18:31 437.445
DANDE 26 Jun 11:15:58 11:20:16 15° 302° (WNW) 11:24:25 436.750
NANOSAT C BR1 26 Jun 11:18:21 11:22:20 45° 72° (ENE) 11:26:21 145.865
QB50P1 26 Jun 11:19:44 11:23:47 50° 73° (ENE) 11:27:51 145.935-145.965
POPSAT HIP 1 26 Jun 11:22:40 11:26:44 53° 73° (ENE) 11:30:50 437.405
QB50P2 26 Jun 11:34:10 11:38:22 78° 74° (ENE) 11:42:35 145.880/145.840
POLYITAN 1 26 Jun 11:36:48 11:40:59 80° 75° (ENE) 11:45:12 437.675
DUCHIFAT 1 26 Jun 11:40:01 11:44:10 76° 74° (ENE) 11:48:21 145.980
HUMSAT D 26 Jun 11:41:15 11:45:32 61° 286° (WNW) 11:49:47 437.325/437.525
ZACube-1 26 Jun 11:42:25 11:45:25 18° 296° (WNW) 11:48:26 437.345
BEESAT 3 26 Jun 11:50:08 11:53:55 43° 51° (NE) 11:57:42 437.485
RS-15 26 Jun 11:54:53 12:05:28 47° 109° (ESE) 12:16:33 29.354- 29.394
YUBILEINY 26 Jun 11:56:57 12:02:59 21° 78° (ENE) 12:09:02 435.215
PHONESAT 2.4 26 Jun 11:57:22 12:00:15 36° 194° (SSW) 12:03:07 2401.200-2431.200
Oscar 11 26 Jun 11:58:55 12:00:13 11° 300° (WNW) 12:01:33 145.826/435.025
CUBEBUG 1 26 Jun 11:59:58 12:03:30 24° 95° (E) 12:07:00 437.445
VELOX 1 26 Jun 12:01:12 12:04:43 23° 95° (E) 12:08:13 145.980
FUNcube-1 26 Jun 12:02:26 12:04:17 12° 299° (WNW) 12:06:08 145.935
Oscar 19 26 Jun 12:03:04 12:05:32 14° 58° (ENE) 12:08:01 437.125/150
Cosmos 2491 26 Jun 12:06:46 12:15:25 61° 78° (ENE) 12:24:00 435.465 / 435.565
O/OREOS (USA 219) 26 Jun 12:09:04 12:12:09 18° 53° (NE) 12:15:14 437.305
JAS-2 26 Jun 12:09:04 12:16:24 50° 69° (ENE) 12:23:09 435.910
BEESAT 2 26 Jun 12:22:46 12:26:43 52° 53° (NE) 12:30:36 435.950
50 SAT 26 Jun 12:26:06 12:29:42 46° 99° (E) 12:33:16 437.505
ESTCUBE 1 26 Jun 12:26:22 12:30:54 70° 103° (ESE) 12:35:21 437.505/2401.250
PCSat 26 Jun 12:30:14 12:35:38 69° 243° (WSW) 12:41:00 145.827
ISS 26 Jun 12:32:13 12:34:42 19° 350° (N) 12:37:11 145.825
AISAT 26 Jun 12:41:06 12:45:29 65° 102° (ESE) 12:49:51 437.250
BUGSAT 1 26 Jun 12:47:10 12:50:57 39° 261° (W) 12:54:45 437.445
Cosmos 2504 26 Jun 12:49:15 12:52:01 12° 71° (ENE) 12:54:50 435.465 / 435.565
UKube-1 26 Jun 12:55:12 12:59:27 54° 101° (E) 13:03:40 .
NANOSAT C BR1 26 Jun 12:55:47 12:58:18 16° 268° (W) 13:00:50 145.865
QB50P1 26 Jun 12:57:34 12:59:51 14° 269° (W) 13:02:09 145.935-145.965
TISAT 1 26 Jun 12:59:01 12:59:14 10° 89° (E) 12:59:27 437.305
POPSAT HIP 1 26 Jun 13:00:45 13:02:51 13° 269° (W) 13:04:57 437.405
SPROUT 26 Jun 13:01:42 13:05:49 45° 99° (E) 13:09:56 437.525
DX 1 26 Jun 13:10:15 13:14:36 82° 285° (WNW) 13:18:56 434.975-435.025
BEESAT 3 26 Jun 13:28:35 13:31:18 18° 248° (WSW) 13:34:00 437.485
PHONESAT 2.4 26 Jun 13:35:06 13:36:21 12° 210° (SSW) 13:37:37 2401.200-2431.200
CUBEBUG 1 26 Jun 13:35:59 13:39:48 31° 291° (WNW) 13:43:35 437.445
Gurwin Techsat 1B 26 Jun 13:36:12 13:41:08 41° 68° (ENE) 13:46:06 435.225
VELOX 1 26 Jun 13:37:17 13:41:15 34° 291° (WNW) 13:45:12 145.980
Oscar 19 26 Jun 13:38:59 13:44:09 86° 257° (WSW) 13:49:19 437.125/150
O/OREOS (USA 219) 26 Jun 13:47:31 13:51:53 53° 252° (WSW) 13:56:14 437.305
YUBILEINY 26 Jun 13:49:57 13:58:40 82° 278° (W) 14:07:29 435.215
JAS-2 26 Jun 13:54:33 14:01:29 36° 264° (W) 14:07:59 435.910
AO-7 26 Jun 13:55:26 14:01:34 24° 51° (NE) 14:07:43 29.400- 29.500
ITAMSAT 1 26 Jun 13:57:12 14:01:22 25° 63° (ENE) 14:05:32 435.822/435.867
50 SAT 26 Jun 14:01:15 14:02:59 13° 296° (WNW) 14:04:44 437.505
BEESAT 2 26 Jun 14:01:50 14:04:07 15° 250° (WSW) 14:06:24 435.950
Cosmos 2491 26 Jun 14:04:29 14:11:38 30° 278° (W) 14:18:47 435.465 / 435.565
ESTCUBE 1 26 Jun 14:04:59 14:07:07 13° 299° (WNW) 14:09:13 437.505/2401.250
RS-15 26 Jun 14:06:21 14:17:40 59° 314° (NW) 14:29:39 29.354- 29.394
ISS 26 Jun 14:09:28 14:11:59 20° 11° (N) 14:14:30 145.825
ITUPSAT 1 26 Jun 14:13:12 14:15:39 14° 90° (E) 14:18:05 437.325
BEESAT 26 Jun 14:13:43 14:16:17 14° 90° (E) 14:18:50 436.000
AISAT 26 Jun 14:19:17 14:21:25 14° 299° (WNW) 14:23:35 437.250
AIST 2 26 Jun 14:21:38 14:25:43 53° 52° (NE) 14:29:47 435.215
TISAT 1 26 Jun 14:31:09 14:35:21 71° 285° (WNW) 14:39:32 437.305
UKube-1 26 Jun 14:32:32 14:35:03 15° 298° (WNW) 14:37:34 .
Cosmos 2504 26 Jun 14:35:33 14:43:29 67° 93° (E) 14:52:02 435.465 / 435.565
SPROUT 26 Jun 14:38:36 14:41:25 17° 296° (WNW) 14:44:15 437.525
Gurwin Techsat 1B 26 Jun 15:16:45 15:21:12 27° 266° (W) 15:25:40 435.225
Oscar 19 26 Jun 15:23:55 15:24:11 10° 273° (W) 15:24:27 437.125/150
SWISSCUBE 26 Jun 15:24:05 15:28:55 80° 103° (ESE) 15:33:42 437.505
ITAMSAT 1 26 Jun 15:35:34 15:40:32 45° 261° (W) 15:45:34 435.822/435.867
KKS-1 26 Jun 15:41:57 15:44:04 13° 90° (E) 15:46:10 437.445
AO-7 26 Jun 15:44:58 15:53:18 89° 244° (WSW) 16:01:44 29.400- 29.500
ISS 26 Jun 15:45:40 15:48:55 61° 30° (NNE) 15:52:09 145.825
SO-50 26 Jun 15:45:54 15:49:16 19° 110° (ESE) 15:52:37 436.795
ITUPSAT 1 26 Jun 15:49:09 15:53:57 67° 287° (WNW) 15:58:42 437.325
BEESAT 26 Jun 15:49:44 15:54:30 64° 287° (WNW) 15:59:14 436.000
YUBILEINY 26 Jun 15:51:27 15:56:59 18° 301° (WNW) 16:02:36 435.215
AIST 2 26 Jun 16:01:15 16:03:47 16° 250° (WSW) 16:06:19 435.215
HORYU 2 26 Jun 16:05:26 16:08:56 24° 66° (ENE) 16:12:29 437.375
STARS 26 Jun 16:19:58 16:22:51 17° 92° (E) 16:25:43 437.465
RS-15 26 Jun 16:23:46 16:33:31 28° 345° (NNW) 16:43:37 29.354- 29.394
Cosmos 2504 26 Jun 16:30:50 16:37:37 28° 295° (WNW) 16:44:49 435.465 / 435.565
MOZHAYETS 4 26 Jun 16:49:45 16:54:24 64° 101° (E) 16:58:59
NOAA 15 26 Jun 16:56:34 17:00:21 20° 61° (ENE) 17:04:08 137.62
NOAA 18 26 Jun 17:00:56 17:04:40 19° 59° (ENE) 17:08:25 137.9125
SWISSCUBE 26 Jun 17:03:50 17:06:04 13° 301° (WNW) 17:08:16 437.505
BRITE-PL 26 Jun 17:06:09 17:09:44 20° 66° (ENE) 17:13:10 437.365/2234.400
KKS-1 26 Jun 17:16:38 17:21:02 61° 286° (WNW) 17:25:24 437.445
ISS 26 Jun 17:22:49 17:25:04 17° 227° (SW) 17:27:19 145.825
SO-50 26 Jun 17:24:28 17:29:19 60° 307° (NW) 17:34:09 436.795
Cubesat XI-IV 26 Jun 17:24:38 17:28:57 26° 64° (ENE) 17:33:17 437.490
Cosmos 2499 26 Jun 17:32:57 17:35:17 11° 71° (ENE) 17:37:39 435.465 / 435.565
HORYU 2 26 Jun 17:41:17 17:45:19 35° 262° (W) 17:49:24 437.375
AO-7 26 Jun 17:41:39 17:47:07 19° 270° (W) 17:52:39 29.400- 29.500
AIST 1 26 Jun 17:47:20 17:51:40 85° 97° (E) 17:56:00
HO-68 26 Jun 17:48:49 17:49:47 10° 45° (NE) 17:50:45 435.675
GOMX 1 26 Jun 17:51:31 17:55:09 23° 68° (ENE) 17:58:37 467.674
GONETS M04 26 Jun 17:52:56 17:59:53 28° 82° (E) 18:06:49
STARS 26 Jun 17:55:14 17:59:27 46° 289° (WNW) 18:03:40 437.465
CUTE-I 26 Jun 17:58:43 18:03:51 49° 70° (ENE) 18:09:02 437.470
CUBESAT XI-V 26 Jun 18:11:05 18:15:39 54° 100° (E) 18:20:09 437.345
CUSAT 1 26 Jun 18:26:19 18:29:36 23° 67° (ENE) 18:32:17 437.405
DANDE 26 Jun 18:28:08 18:31:09 15° 57° (ENE) 18:33:46 436.750
MOZHAYETS 4 26 Jun 18:28:24 18:31:01 15° 298° (WNW) 18:33:38
LilacSat-2 26 Jun 18:28:47 18:32:32 88° 84° (E) 18:36:22 437.200
NOAA 15 26 Jun 18:34:28 18:39:41 59° 259° (WSW) 18:44:55 137.62
NOAA 18 26 Jun 18:39:21 18:44:47 66° 257° (WSW) 18:50:15 137.9125
RS-15 26 Jun 18:40:57 18:51:17 30° 20° (NNE) 19:01:43 29.354- 29.394
BRITE-PL 26 Jun 18:42:56 18:47:57 51° 261° (W) 18:52:35 437.365/2234.400
CUTE 1.7 + AOD 2 26 Jun 18:56:08 18:58:02 13° 62° (ENE) 18:59:56 437.475
DOVE 4 26 Jun 19:02:24 19:06:40 54° 73° (ENE) 19:10:47 437.250
Cubesat XI-IV 26 Jun 19:03:38 19:08:45 45° 261° (W) 19:13:54 437.490
SEEDS 26 Jun 19:04:51 19:06:12 11° 61° (ENE) 19:07:32 437.485
SO-50 26 Jun 19:08:27 19:10:47 13° 328° (NNW) 19:13:08 436.795
Cosmos 2499 26 Jun 19:18:21 19:26:25 63° 92° (E) 19:35:03 435.465 / 435.565
GOMX 1 26 Jun 19:28:47 19:33:06 36° 262° (W) 19:37:11 467.674
HO-68 26 Jun 19:29:01 19:35:49 50° 66° (ENE) 19:42:40 435.675
CUTE-I 26 Jun 19:40:03 19:44:10 22° 267° (W) 19:48:18 437.470
GONETS M04 26 Jun 19:47:21 19:55:59 65° 281° (WNW) 20:04:39
AAUSAT CUBESAT 2 26 Jun 19:48:34 19:51:30 19° 65° (ENE) 19:54:26 437.432
CUBESAT XI-V 26 Jun 19:49:36 19:52:36 17° 297° (WNW) 19:55:34 437.345
AUBIESAT-1 26 Jun 19:50:19 19:51:48 13° 59° (ENE) 19:53:19 437.475
CANX-2 26 Jun 20:08:34 20:12:51 84° 76° (ENE) 20:17:10 2200.000
CUSAT 1 26 Jun 20:08:54 20:11:23 17° 276° (W) 20:13:32 437.405
DANDE 26 Jun 20:09:39 20:14:55 58° 266° (W) 20:18:48 436.750
CINEMA 3 26 Jun 20:14:08 20:18:18 86° 261° (W) 20:22:28 145.822/145.860
STRAND 1 26 Jun 20:15:22 20:20:32 67° 102° (ESE) 20:25:38 437.568
COMPASS 1 26 Jun 20:19:07 20:23:10 48° 73° (ENE) 20:27:15 437.405
M-CUBED/EXP-1 PRIME 26 Jun 20:25:56 20:29:01 41° 68° (ENE) 20:32:08 437.505
CUBEBUG 2 26 Jun 20:26:09 20:29:59 37° 70° (ENE) 20:33:55 437.445
CUTE 1.7 + AOD 2 26 Jun 20:29:04 20:33:19 66° 259° (W) 20:37:37 437.475
SEEDS 26 Jun 20:37:02 20:41:16 75° 258° (WSW) 20:45:34 437.485
PRISM 26 Jun 20:37:26 20:39:59 16° 92° (E) 20:42:30 437.425
DOVE 4 26 Jun 20:42:35 20:44:41 13° 269° (W) 20:46:46 437.250
HUMSAT D 26 Jun 21:01:29 21:02:08 10° 60° (ENE) 21:02:47 437.325/437.525
ZACube-1 26 Jun 21:01:48 21:05:44 42° 72° (ENE) 21:09:48 437.345
